Theta_e
303 303 303 301 301 304 303 304 307 307 305 306 306 308 309 311 313 314 316 316 317 316 313 311 309 308 306 304 303 302 302 301 300 299 299 298 299 299 300 301 300 299 299
303 302 300 300 302 303 302 304 304 304 305 305 307 306 309 310 311 312 313 315 316 315 313 311 309 307 306 304 303 302 301 300 300 299 298 298 299 299 300 300 299 297 297
301 300 301 301 300 301 303 303 303 303 304 306 307 305 306 309 310 310 310 313 315 315 314 311 309 307 306 304 303 302 301 301 300 299 298 299 299 299 300 299 298 298 299
299 300 301 301 301 301 302 303 303 302 304 306 306 305 305 306 309 310 309 311 313 314 314 310 309 307 306 304 302 302 301 300 300 299 299 299 299 300 299 299 299 299 298
299 299 300 301 300 302 302 301 301 305 306 306 304 304 304 305 308 309 310 312 311 313 313 310 308 307 306 304 302 302 301 300 300 299 299 300 300 300 298 299 300 298 296
299 299 299 300 300 301 300 302 304 305 303 302 302 302 303 304 305 309 310 309 310 312 312 309 308 306 305 303 302 301 300 300 299 300 300 301 300 298 300 300 298 296 297
299 299 300 299 300 300 301 301 300 301 301 300 301 302 303 303 305 308 309 308 309 311 311 308 307 305 303 302 302 301 301 300 302 301 300 300 299 299 300 297 296 298 302
298 299 299 299 299 300 300 298 300 301 300 299 300 302 302 303 305 308 309 308 309 311 310 308 306 305 303 302 301 302 303 303 301 300 300 298 298 298 296 297 299 302 304
299 299 299 299 299 300 299 298 300 300 299 299 300 301 301 301 305 308 309 308 306 308 308 306 305 303 302 301 300 300 300 300 300 299 298 298 297 296 297 299 303 303 304
298 298 298 298 299 299 299 299 299 298 298 299 300 301 301 301 305 307 308 308 306 306 306 305 303 302 301 300 300 300 300 299 299 298 298 296 296 296 299 304 306 303 303
298 297 298 299 299 299 298 298 297 297 298 300 300 300 300 301 305 306 308 308 307 306 305 303 302 301 300 300 300 300 299 299 298 299 297 296 295 297 306 308 310 306 304
296 297 298 296 297 297 296 295 295 298 300 300 300 300 301 303 305 306 309 308 306 305 303 302 301 301 300 301 300 300 300 299 300 297 296 296 295 305 308 312 315 314 313
296 296 295 297 296 296 295 297 297 299 299 299 301 301 301 303 305 309 307 306 305 304 303 302 301 300 301 300 300 300 299 299 298 296 296 295 302 306 312 313 315 315 313
295 295 296 295 295 295 296 297 298 299 298 299 302 301 302 302 305 307 306 304 303 303 302 300 300 300 300 300 300 299 299 298 297 296 295 298 304 308 313 314 315 313 311
295 295 295 294 294 294 295 296 299 299 298 299 303 301 303 303 306 306 305 303 303 301 300 300 300 300 300 299 298 299 299 298 296 295 296 300 305 309 313 314 314 312 311
295 294 294 294 294 295 295 298 298 297 298 303 303 301 302 305 306 306 304 303 301 300 299 300 300 300 298 298 299 299 298 296 295 297 298 300 305 309 313 314 314 312 311
295 295 294 295 295 295 297 298 298 298 302 303 303 301 302 305 305 305 304 302 300 300 300 300 299 297 299 299 299 298 295 296 297 297 298 300 304 309 312 313 314 312 312
294 294 295 295 295 297 298 298 297 298 300 304 302 301 302 304 304 303 301 300 300 300 300 298 297 299 299 299 298 296 296 296 297 297 299 300 304 308 311 313 314 314 313
295 295 295 296 296 296 296 296 297 299 302 301 301 301 303 304 303 302 300 299 300 299 297 297 298 298 299 298 296 296 296 297 296 296 297 299 302 307 310 312 313 314 315
296 296 296 297 297 296 296 298 300 302 300 300 301 303 303 303 303 302 301 299 298 297 297 297 298 298 298 297 295 296 296 296 296 295 296 298 300 304 308 311 313 314 315
296 297 298 299 299 299 300 301 301 300 300 301 303 303 302 302 302 301 299 298 297 296 297 298 298 298 297 296 295 296 296 296 296 295 295 295 298 302 305 308 311 312 314
297 297 297 298 298 298 298 298 299 300 300 301 301 301 302 301 299 299 298 296 296 298 298 298 297 297 296 295 295 296 296 296 295 295 295 294 295 299 303 307 310 312 313
297 297 297 297 297 298 298 298 299 299 300 300 300 299 299 298 297 296 297 298 298 297 297 297 296 296 295 295 295 296 296 296 295 295 294 294 294 295 300 305 307 310 311
297 297 297 297 297 297 297 297 298 299 298 297 296 296 295 296 297 298 297 297 297 296 296 296 296 295 295 295 295 296 296 295 295 294 293 293 293 293 296 302 305 306 309
296 297 297 297 297 297 297 297 297 297 297 297 297 297 297 297 297 296 296 296 296 296 296 295 295 294 294 294 295 295 295 295 294 293 293 293 293 294 295 298 301 304 306
295 295 296 296 296 297 297 297 296 297 296 296 296 296 296 296 296 296 295 295 295 295 295 295 294 294 294 294 295 295 295 294 293 293 293 293 294 295 295 296 299 301 303
Wind_Speed
28 28 32 36 37 36 37 34 30 34 38 36 37 32 28 28 40 50 54 54 47 41 44 41 42 40 37 35 34 31 29 27 27 24 22 19 21 20 21 23 24 25 28
24 31 37 34 30 35 35 31 31 35 36 38 34 33 31 26 34 47 53 54 49 44 44 42 43 40 38 35 34 32 29 26 24 24 23 22 22 22 24 27 28 29 28
35 35 33 36 34 34 33 33 33 34 37 35 32 30 33 30 30 42 48 51 50 43 44 43 43 41 39 37 35 33 29 25 23 25 25 24 24 25 28 29 27 24 21
33 34 36 37 37 37 33 31 36 38 33 37 34 35 37 32 36 39 43 42 50 43 45 43 42 41 40 36 35 32 27 25 25 25 25 26 27 28 28 27 28 26 26
35 35 38 36 37 33 28 38 35 29 28 32 37 39 41 38 40 35 43 43 53 47 46 43 40 39 36 33 32 29 27 26 25 23 25 27 28 25 25 26 30 31 31
41 41 37 41 36 37 38 32 28 30 35 39 42 42 43 45 37 37 41 51 48 49 46 41 38 36 33 31 29 26 26 24 23 23 24 24 25 26 25 28 32 35 43
42 45 38 40 34 36 31 31 37 39 41 44 42 39 41 45 37 36 42 50 46 49 44 39 36 35 32 30 28 26 24 21 20 19 23 25 27 25 28 32 34 35 39
42 42 39 38 39 31 36 40 35 37 42 42 39 37 41 44 31 34 37 41 44 48 40 35 35 35 32 29 26 24 24 22 21 23 25 25 25 26 28 30 35 39 43
41 41 38 38 38 35 39 39 34 40 46 41 40 37 40 41 27 26 33 34 43 45 36 33 33 30 28 27 26 25 21 21 21 21 21 21 24 25 26 30 37 39 44
41 36 38 38 34 34 39 33 38 45 44 39 40 32 36 34 27 24 30 39 42 39 33 32 30 28 26 26 23 20 19 18 18 17 18 21 21 24 24 27 33 36 40
38 38 37 33 34 36 34 39 46 44 39 39 35 27 33 26 23 26 33 41 35 35 35 34 30 27 25 22 18 16 15 13 13 14 18 21 23 23 24 27 29 31 35
40 36 35 40 38 39 42 49 40 36 37 40 30 26 25 22 20 28 40 32 30 35 38 34 30 26 22 18 16 13 10 9 10 13 18 21 23 24 26 27 25 26 22
36 41 40 36 41 43 43 31 33 33 35 33 28 25 19 16 27 31 28 28 33 37 33 29 26 23 19 16 12 9 8 8 9 13 17 20 21 25 24 25 23 15 13
38 34 35 40 40 37 29 30 32 32 36 27 27 22 14 18 25 31 26 32 33 32 28 26 23 20 16 12 10 8 6 7 9 12 16 16 20 22 21 20 19 15 21
32 35 32 33 35 30 31 29 28 32 28 25 23 19 17 24 31 30 33 37 33 32 31 27 24 21 17 11 8 7 6 6 8 11 12 17 20 21 20 19 15 18 24
29 26 27 27 27 31 32 28 30 28 21 19 17 15 18 26 31 31 35 32 32 30 28 26 22 17 12 10 9 7 3 4 6 7 10 17 19 21 19 18 14 19 27
26 27 28 27 29 30 25 27 30 21 11 10 15 20 25 29 29 30 30 30 28 28 24 21 17 14 13 11 9 4 1 5 7 8 10 16 17 18 18 20 16 20 24
22 23 25 27 27 23 24 26 23 22 15 14 17 19 30 28 30 27 29 32 31 24 19 15 15 15 13 11 7 5 5 6 6 7 8 14 16 19 18 19 19 18 21
21 23 23 24 22 22 23 22 18 13 10 15 20 26 25 27 26 27 31 30 28 22 17 15 14 14 13 10 8 8 6 6 7 6 8 12 16 17 17 17 16 18 19
14 15 16 18 17 13 9 9 5 11 19 27 27 30 30 30 32 34 31 25 22 20 18 16 15 14 11 10 8 8 6 5 6 8 9 10 14 15 16 16 17 20 16
12 12 8 6 6 10 15 17 17 30 31 25 32 29 25 28 31 30 26 22 20 17 18 16 16 13 12 10 9 8 6 5 7 10 12 11 12 13 13 15 14 15 16
12 14 15 15 17 22 26 31 35 35 34 36 33 28 23 26 26 26 21 17 17 17 16 15 14 11 10 9 9 6 4 4 6 9 11 13 10 9 10 11 12 12 12
13 16 15 19 20 25 28 31 34 32 29 27 26 23 23 24 22 20 19 20 20 18 16 14 13 11 11 10 8 6 3 3 4 7 10 12 11 8 7 7 9 9 10
15 18 20 20 17 21 27 30 27 26 27 25 23 21 21 20 20 18 19 19 17 17 16 15 12 10 10 9 7 5 5 5 7 8 9 12 12 7 5 4 4 6 6
19 17 19 20 22 23 24 25 25 24 23 23 24 22 20 20 18 16 16 16 16 16 16 14 11 11 8 7 7 5 2 4 5 7 10 9 10 7 5 4 2 2 3
19 19 19 19 19 19 18 18 20 21 22 21 19 17 15 14 15 15 14 13 13 14 13 13 11 8 7 6 6 3 1 1 3 6 7 10 10 8 5 3 4 4 3
Wind_Direction
321 316 312 311 302 304 307 307 308 311 310 309 318 306 300 291 270 262 256 247 247 252 247 244 242 240 239 239 242 243 243 245 252 257 267 276 278 280 281 282 287 285 285
307 309 307 310 303 303 309 305 307 304 305 310 312 313 289 296 280 260 259 249 246 248 248 243 240 236 237 239 243 244 246 248 252 264 272 276 278 284 288 290 292 292 289
311 311 309 309 311 307 305 306 308 308 303 302 304 315 310 284 276 266 255 253 248 249 251 243 239 234 235 237 239 242 244 244 254 263 273 278 285 289 291 292 294 294 283
317 313 308 311 311 307 305 306 306 307 295 300 304 301 305 293 265 262 259 254 248 249 250 243 240 236 236 236 237 239 239 245 251 261 271 280 286 289 290 294 297 295 295
310 314 310 305 313 314 307 309 306 302 298 300 305 300 301 303 261 253 250 251 247 244 244 240 238 236 237 236 235 235 239 245 253 263 271 278 281 286 292 299 301 302 297
312 307 308 304 307 308 306 308 301 303 305 309 304 300 294 292 284 248 243 239 242 241 240 235 233 231 229 228 231 236 241 248 258 265 270 275 285 293 296 299 299 299 298
305 300 302 308 297 305 304 301 302 301 304 305 302 296 289 286 281 247 237 231 235 240 236 230 226 222 221 222 227 233 240 249 257 267 276 282 288 291 295 298 296 293 289
295 294 292 305 301 296 300 304 296 298 301 304 306 297 295 286 255 248 222 228 232 239 232 225 218 216 214 217 220 225 233 245 258 266 275 281 284 291 296 297 294 291 291
292 285 291 299 299 294 299 306 297 299 303 303 307 297 294 293 254 244 221 226 225 233 226 216 212 211 210 213 222 232 240 251 264 271 276 281 288 294 292 294 289 292 288
290 282 297 292 290 292 298 298 297 301 303 302 305 291 283 287 260 227 220 217 224 224 213 204 204 205 208 217 227 233 247 263 263 269 274 286 296 296 295 292 297 292 289
280 291 288 286 288 295 292 291 296 301 300 301 303 290 276 260 253 220 210 211 221 216 200 193 194 200 211 219 225 243 252 258 269 284 298 304 309 309 311 311 312 305 297
291 286 284 292 289 290 294 297 296 298 300 305 302 283 282 235 237 206 198 211 219 209 194 192 193 199 204 212 226 232 247 270 286 297 305 315 321 325 327 324 324 324 319
284 284 287 284 288 291 297 291 295 297 299 306 293 279 276 243 192 192 200 213 216 201 194 191 193 193 199 201 215 231 253 274 292 306 320 326 333 335 335 336 336 341 341
284 280 283 285 287 297 291 290 288 293 305 296 296 260 244 202 190 187 200 197 204 194 187 183 185 188 192 199 212 236 247 276 307 321 329 334 342 347 357 352 355 23 36
283 283 286 290 292 290 291 295 284 293 296 285 286 249 225 186 190 188 183 191 190 182 174 176 179 184 189 199 198 211 242 297 320 330 340 351 354 359 11 7 20 51 68
288 292 287 289 290 290 297 292 290 302 288 282 246 229 198 179 178 184 190 190 179 178 177 176 179 184 186 181 184 206 258 327 13 8 2 355 360 14 20 25 51 78 80
290 289 292 289 290 293 294 288 301 306 266 246 217 191 176 170 180 193 190 181 181 179 177 176 180 178 172 175 184 190 143 59 55 32 2 1 11 25 32 34 59 90 93
292 288 285 285 288 289 282 289 290 291 298 171 169 168 167 167 179 182 177 167 166 173 177 182 177 174 171 174 172 150 111 83 60 42 0 11 21 29 35 46 48 85 100
297 297 297 294 289 284 285 277 270 275 193 166 160 152 152 165 172 182 175 175 169 171 174 177 175 169 164 169 161 141 116 81 47 27 5 14 27 34 38 49 48 68 99
325 316 309 303 296 286 261 241 221 187 153 146 147 150 151 161 162 174 179 178 173 170 169 173 172 169 165 168 154 142 122 85 51 30 20 22 28 36 36 45 46 59 75
6 359 351 15 80 106 125 146 145 135 138 136 136 145 157 164 170 168 167 168 170 172 161 169 167 164 161 161 154 145 122 82 42 30 22 25 24 37 37 43 55 66 86
39 38 66 92 109 116 113 113 125 125 126 129 133 144 159 164 158 154 157 162 152 145 157 163 160 156 158 158 159 150 136 91 46 30 20 17 22 30 34 39 56 65 84
65 73 74 89 104 114 117 116 125 129 133 135 132 130 144 145 147 145 144 138 139 143 148 158 153 145 147 149 150 159 137 104 72 29 9 6 5 12 32 38 50 68 82
69 80 87 93 105 115 115 113 122 123 119 117 121 130 137 141 136 134 136 141 141 141 146 153 152 154 155 156 141 143 116 79 44 18 3 353 350 354 26 48 43 50 72
55 76 85 90 98 107 112 115 118 120 118 118 118 119 122 126 129 133 139 142 145 149 157 165 173 161 149 142 137 118 83 30 17 2 353 2 4 8 10 33 32 20 51
59 64 71 85 92 97 105 114 119 120 119 121 124 128 138 144 144 149 149 148 155 165 170 169 163 172 150 151 159 164 244 327 336 356 18 7 10 16 10 350 353 345 321